This is the latest recevied weather packets stored in our database for station/object KR8N. If no packets are shown the sender has not sent any weather packets the latest 10 day(s).
| Time | Temp. | Humidity | Pressure | Rain* | Wind** | Luminosity | Snow |
|---|---|---|---|---|---|---|---|
| 1778043291 | 18.33° C | 46% | 1013 hPa | 0 mm | - | 0 W/m² | - |
| 1778042988 | 18.33° C | 47% | 1013.5 hPa | 0 mm | - | 0 W/m² | - |
| 1778042686 | 18.33° C | 46% | 1013.2 hPa | 0 mm | - | 0 W/m² | - |
| 1778042383 | 18.33° C | 45% | 1013.4 hPa | 0 mm | - | 0 W/m² | - |
| 1778042080 | 18.33° C | 45% | 1013.3 hPa | 0 mm | - | 0 W/m² | - |
| 1778041778 | 18.33° C | 45% | 1013.6 hPa | 0 mm | - | 0 W/m² | - |
| 1778041477 | 18.33° C | 46% | 1013.5 hPa | 0 mm | - | 0 W/m² | - |
| 1778041175 | 18.33° C | 45% | 1013.5 hPa | 0 mm | - | 0 W/m² | - |
| 1778040872 | 18.33° C | 45% | 1013.6 hPa | 0 mm | - | 0 W/m² | - |
| 1778040569 | 18.33° C | 44% | 1013.5 hPa | 0 mm | - | 0 W/m² | - |
| 1778040267 | 18.33° C | 45% | 1013.5 hPa | 0 mm | - | 0 W/m² | - |
| 1778039962 | 18.33° C | 45% | 1013.5 hPa | 0 mm | - | 0 W/m² | - |
| 1778039661 | 18.33° C | 45% | 1013.6 hPa | 0 mm | - | 0 W/m² | - |
| 1778039357 | 18.33° C | 48% | 1013.6 hPa | 0 mm | - | 0 W/m² | - |
| 1778039054 | 18.33° C | 47% | 1013.6 hPa | 0 mm | - | 0 W/m² | - |
| 1778038751 | 18.33° C | 46% | 1013.6 hPa | 0 mm | - | 0 W/m² | - |
| 1778038448 | 18.89° C | 45% | 1013.4 hPa | 0 mm | - | 0 W/m² | - |
| 1778038145 | 18.89° C | 44% | 1013.4 hPa | 0 mm | - | 0 W/m² | - |
| 1778037842 | 18.89° C | 45% | 1013.3 hPa | 0 mm | - | 0 W/m² | - |
| 1778037539 | 18.89° C | 44% | 1013.5 hPa | 0 mm | - | 0 W/m² | - |
| 1778037236 | 18.89° C | 45% | 1013.4 hPa | 0 mm | - | 0 W/m² | - |
| 1778036934 | 18.89° C | 47% | 1013.4 hPa | 0 mm | - | 0 W/m² | - |
| 1778036632 | 18.33° C | 45% | 1013.6 hPa | 0 mm | - | 0 W/m² | - |
| 1778036328 | 18.33° C | 47% | 1013.5 hPa | 0 mm | - | 0 W/m² | - |
| 1778036024 | 17.78° C | 50% | 1013.6 hPa | 0 mm | - | 0 W/m² | - |
* Rain latest hour (hover to see other rain measurements)
** Current wind speed in m/s (hover to see current wind gust speed)